Location: Boursonne
(49.2024°N, 3.0468°E)
Time: 03:30:14
(UTC+00:00)

Resurs 01 Rocket - Pass Details

Date: 03 March 2021
Orbit: 635 x 643 km, 98.0° (Epoch: 16 April)

Event Time Altitude Azimuth Distance (km) Brightness Sun altitude
Exits shadow 20:50:14 33° 312° (NW) 1,078 3.2 -31.7°
Drops below altitude 10° 20:52:59 10° 336° (NNW) 2,035 4.8 -32.1°
Sets 20:55:16 0° 342° (NNW) 2,950 5.7 -32.4°
